GW5133 Weather Reports


time (UTC)temp
C
wind
direction
speed
KPH
gust
KPH
rain 1hr
cm
rain 24hr
cm
rain mn
cm
humidity
%
barometer
mb
20260508054023 1 204 0.0 0.0 0.00 0.00 0.00 99 1017.1
20260508053520 1 204 0.0 0.0 0.00 0.00 0.00 99 1017.0
20260508053019 1 204 0.0 0.0 0.00 0.00 0.00 99 1017.1
20260508052515 1 204 0.0 0.0 0.00 0.00 0.00 99 1017.2
20260508052011 1 204 0.0 0.0 0.00 0.00 0.00 99 1017.1
20260508051508 1 204 0.0 0.0 0.00 0.00 0.00 99 1017.0
20260508051003 1 204 0.0 0.0 0.00 0.00 0.00 98 1017.1
20260508050500 1 204 0.0 0.0 0.00 0.00 0.00 98 1017.0
20260508045956 2 204 0.0 0.0 0.00 0.00 0.00 98 1017.2
20260508045454 2 204 0.0 0.0 0.00 0.00 0.00 98 1017.1
20260508044951 2 204 0.0 0.0 0.00 0.00 0.00 98 1017.2
20260508044448 2 204 0.0 0.0 0.00 0.00 0.00 98 1017.2
20260508043943 2 204 0.0 0.0 0.00 0.00 0.00 97 1017.2
20260508043441 2 204 0.0 0.0 0.00 0.00 0.00 97 1017.2
20260508042937 2 204 0.0 0.0 0.00 0.00 0.00 97 1017.1
20260508042435 2 204 0.0 0.0 0.00 0.00 0.00 97 1017.2
20260508041932 2 204 0.0 1.6 0.00 0.00 0.00 97 1016.9
20260508041428 2 204 0.0 0.0 0.00 0.00 0.00 96 1017.1
20260508040925 2 204 0.0 0.0 0.00 0.00 0.00 96 1017.0
20260508040423 3 204 0.0 0.0 0.00 0.00 0.00 96 1016.7
20260508035920 3 204 0.0 0.0 0.00 0.30 0.30 95 1017.1
20260508035417 3 204 0.0 1.6 0.00 0.30 0.30 95 1016.9
20260508034913 3 204 1.6 1.6 0.00 0.30 0.30 94 1017.0
20260508034411 3 204 0.0 0.0 0.00 0.30 0.30 94 1016.8
20260508033907 3 204 0.0 0.0 0.00 0.30 0.30 94 1016.7
20260508033406 3 204 0.0 0.0 0.00 0.30 0.30 93 1016.7
20260508032903 3 196 0.0 0.0 0.00 0.30 0.30 92 1016.8
20260508032400 4 186 0.0 0.0 0.00 0.30 0.30 92 1016.7
20260508031857 4 186 0.0 0.0 0.00 0.30 0.30 90 1016.4
20260508031354 4 186 0.0 0.0 0.00 0.30 0.30 91 1016.5
20260508030850 4 185 0.0 0.0 0.00 0.30 0.30 89 1016.4
20260508030347 4 183 0.0 0.0 0.00 0.30 0.30 89 1016.4
20260508025844 4 183 0.0 0.0 0.00 0.30 0.30 89 1016.4
20260508025341 5 183 0.0 0.0 0.00 0.30 0.30 90 1016.3
20260508024838 5 183 0.0 0.0 0.00 0.30 0.30 89 1016.3
20260508024334 5 183 0.0 0.0 0.00 0.30 0.30 88 1016.4
20260508023831 5 183 0.0 0.0 0.00 0.30 0.30 88 1016.2
20260508023328 5 183 0.0 0.0 0.00 0.30 0.30 87 1016.2
20260508022825 5 177 0.0 0.0 0.00 0.30 0.30 88 1016.1
20260508022320 5 176 0.0 0.0 0.00 0.30 0.30 84 1016.1
20260508021818 6 176 0.0 0.0 0.00 0.30 0.30 82 1016.0
20260508021314 6 176 0.0 0.0 0.00 0.30 0.30 81 1016.0
20260508020810 6 177 0.0 0.0 0.00 0.30 0.30 79 1016.0
20260508020308 6 175 0.0 0.0 0.00 0.30 0.30 75 1015.9
20260508015804 6 175 0.0 0.0 0.00 0.30 0.30 74 1015.8
20260508015305 6 175 0.0 0.0 0.00 0.30 0.30 70 1015.6
20260508014759 6 175 0.0 0.0 0.00 0.30 0.30 70 1016.0
20260508014256 6 175 0.0 0.0 0.00 0.30 0.30 71 1015.6
20260508013751 7 175 0.0 0.0 0.00 0.30 0.30 69 1015.4
20260508013248 7 175 0.0 0.0 0.00 0.30 0.30 69 1015.5
20260508012745 7 169 0.0 0.0 0.00 0.30 0.30 68 1015.5
20260508012242 7 172 0.0 0.0 0.00 0.30 0.30 68 1015.3
20260508011740 7 173 0.0 0.0 0.00 0.30 0.30 68 1015.2
20260508011237 7 210 0.0 0.0 0.00 0.30 0.30 66 1015.0
20260508010734 8 202 0.0 0.0 0.00 0.30 0.30 69 1015.0
20260508010232 8 199 1.6 1.6 0.00 0.30 0.30 64 1015.2
20260508005729 8 211 0.0 0.0 0.00 0.30 0.30 68 1015.0
20260508005226 8 225 0.0 0.0 0.00 0.30 0.30 65 1014.9
20260508004721 9 257 0.0 0.0 0.00 0.30 0.30 61 1014.9
20260508004218 8 226 0.0 0.0 0.00 0.30 0.30 60 1015.0
20260508003715 9 220 0.0 0.0 0.00 0.30 0.30 63 1014.7
20260508003212 9 244 0.0 0.0 0.00 0.30 0.30 60 1014.7
20260508002708 10 257 0.0 0.0 0.00 0.30 0.30 60 1014.7
20260508002206 10 262 0.0 1.6 0.00 0.30 0.30 57 1014.8
20260508001701 10 239 1.6 1.6 0.00 0.30 0.30 57 1014.5
20260508001157 11 270 0.0 1.6 0.00 0.30 0.30 55 1014.6
20260508000654 11 258 1.6 3.2 0.00 0.30 0.30 52 1014.5
20260508000151 11 254 3.2 3.2 0.00 0.30 0.30 50 1014.3
20260507235647 11 263 4.8 4.8 0.00 0.30 0.30 51 1014.3
20260507235145 11 244 0.0 3.2 0.00 0.30 0.30 52 1014.3
20260507234642 12 290 1.6 4.8 0.00 0.30 0.30 49 1014.3
20260507234138 12 247 1.6 1.6 0.00 0.30 0.30 53 1014.3
20260507233635 12 256 1.6 6.4 0.00 0.30 0.30 49 1014.1
20260507233134 12 241 3.2 6.4 0.00 0.30 0.30 48 1014.1
20260507232629 12 266 3.2 6.4 0.00 0.30 0.30 48 1014.0
20260507232127 12 252 1.6 4.8 0.00 0.30 0.30 48 1014.0
20260507231623 12 277 3.2 4.8 0.00 0.30 0.30 50 1014.1
20260507231121 12 243 1.6 4.8 0.00 0.30 0.30 49 1014.0
20260507230617 12 270 6.4 9.7 0.00 0.30 0.30 47 1013.7
20260507230114 12 238 3.2 4.8 0.00 0.30 0.30 53 1013.6
20260507225608 12 264 1.6 4.8 0.00 0.30 0.30 50 1013.6
20260507225106 13 231 1.6 6.4 0.00 0.30 0.30 49 1013.8
20260507224601 13 235 4.8 11.3 0.00 0.30 0.30 47 1013.6
20260507224058 13 328 3.2 6.4 0.00 0.30 0.30 50 1013.8
20260507223554 13 263 6.4 12.9 0.00 0.30 0.30 47 1013.7
20260507223051 13 312 6.4 11.3 0.00 0.30 0.30 47 1013.6
20260507222548 13 39 1.6 3.2 0.00 0.30 0.30 49 1013.5
20260507222044 13 309 9.7 14.5 0.00 0.30 0.30 47 1013.7
20260507221541 13 225 3.2 3.2 0.00 0.30 0.30 50 1013.6
20260507221038 13 268 9.7 11.3 0.00 0.30 0.30 48 1013.5
20260507220535 13 4 8.0 11.3 0.00 0.30 0.30 46 1013.5
20260507220032 13 254 6.4 9.7 0.00 0.30 0.30 46 1013.4
20260507215528 14 216 6.4 6.4 0.00 0.30 0.30 50 1013.4
20260507215027 13 249 1.6 6.4 0.00 0.30 0.30 50 1013.1
20260507214523 14 299 6.4 11.3 0.00 0.30 0.30 45 1013.2
20260507214019 14 232 3.2 6.4 0.00 0.30 0.30 49 1013.1
20260507213516 13 217 8.0 11.3 0.00 0.30 0.30 46 1013.1
20260507213013 15 231 8.0 11.3 0.00 0.30 0.30 47 1013.0
20260507212508 15 250 9.7 11.3 0.00 0.30 0.30 51 1013.0
20260507212005 14 261 3.2 6.4 0.00 0.30 0.30 47 1013.0
20260507211502 13 264 4.8 4.8 0.00 0.30 0.30 49 1012.9
20260507210958 13 274 1.6 9.7 0.00 0.30 0.30 48 1012.9
20260507210455 13 215 4.8 4.8 0.00 0.30 0.30 51 1012.9
20260507205952 13 213 4.8 11.3 0.00 0.30 0.30 49 1013.0
20260507205449 14 255 1.6 6.4 0.00 0.30 0.30 51 1012.9
20260507204945 14 285 3.2 6.4 0.00 0.30 0.30 48 1012.8
20260507204442 14 215 6.4 9.7 0.00 0.30 0.30 47 1012.9
20260507203940 16 254 6.4 11.3 0.00 0.30 0.30 44 1013.0
20260507203437 16 285 1.6 6.4 0.00 0.30 0.30 46 1012.7
20260507202934 15 327 1.6 11.3 0.00 0.30 0.30 44 1012.9
20260507202430 16 236 8.0 9.7 0.00 0.30 0.30 45 1012.9
20260507201926 15 278 3.2 11.3 0.00 0.30 0.30 41 1012.9
20260507201421 15 268 4.8 4.8 0.00 0.30 0.30 50 1013.0
20260507200919 13 229 4.8 11.3 0.00 0.30 0.30 49 1012.9
20260507200414 14 235 8.0 12.9 0.00 0.30 0.30 48 1013.0
20260507195910 14 17 4.8 9.7 0.00 0.30 0.30 48 1013.1
20260507195408 13 245 1.6 4.8 0.00 0.30 0.30 49 1013.3
20260507194905 13 220 8.0 11.3 0.00 0.30 0.30 51 1013.3
20260507194401 15 230 8.0 11.3 0.00 0.30 0.30 46 1013.2
20260507193857 15 262 3.2 6.4 0.00 0.30 0.30 47 1013.3
20260507193355 15 230 11.3 14.5 0.00 0.30 0.30 48 1013.5
20260507192851 15 240 3.2 9.7 0.00 0.30 0.30 56 1013.2
20260507192347 14 244 6.4 9.7 0.00 0.30 0.30 56 1013.5
20260507191844 14 248 6.4 9.7 0.00 0.30 0.30 55 1013.5
20260507191340 14 247 1.6 9.7 0.00 0.30 0.30 54 1013.5
20260507190837 14 299 6.4 9.7 0.00 0.30 0.30 52 1013.5
20260507190335 14 275 3.2 11.3 0.00 0.30 0.30 53 1013.6
20260507185834 14 251 3.2 12.9 0.00 0.30 0.30 53 1013.6
20260507185330 15 321 4.8 9.7 0.00 0.30 0.30 53 1013.4
20260507184828 15 213 1.6 6.4 0.00 0.30 0.30 58 1013.5
20260507184326 13 232 3.2 4.8 0.00 0.30 0.30 56 1013.6
20260507183822 14 239 4.8 11.3 0.00 0.30 0.30 61 1013.6
20260507183319 14 306 6.4 6.4 0.00 0.30 0.30 54 1013.6
20260507182817 13 256 1.6 6.4 0.00 0.30 0.30 56 1013.6
20260507182312 12 251 3.2 9.7 0.00 0.30 0.30 63 1013.8
20260507181809 13 220 6.4 6.4 0.00 0.30 0.30 65 1013.7
20260507181305 13 225 1.6 3.2 0.00 0.30 0.30 58 1013.8
20260507180801 13 12 4.8 9.7 0.00 0.30 0.30 57 1013.7
20260507180259 13 285 1.6 3.2 0.00 0.30 0.30 57 1013.6
20260507175754 13 219 11.3 12.9 0.00 0.30 0.30 58 1013.7
20260507175251 14 226 8.0 11.3 0.00 0.30 0.30 55 1013.7
20260507174748 15 225 3.2 6.4 0.00 0.30 0.30 62 1013.8
20260507174246 14 279 8.0 9.7 0.00 0.30 0.30 59 1013.7
20260507173744 15 269 1.6 6.4 0.00 0.30 0.30 59 1013.8
20260507173241 13 245 4.8 9.7 0.00 0.30 0.30 62 1014.1
20260507172737 13 212 3.2 6.4 0.00 0.30 0.30 65 1014.1
20260507172234 13 248 6.4 11.3 0.00 0.30 0.30 58 1014.1
20260507171734 13 257 4.8 4.8 0.00 0.30 0.30 65 1014.2
20260507171232 13 241 4.8 11.3 0.00 0.30 0.30 67 1014.3
20260507170729 13 266 3.2 6.4 0.00 0.30 0.30 61 1014.2
20260507170225 14 46 6.4 9.7 0.00 0.30 0.30 63 1014.3
20260507165721 13 258 3.2 4.8 0.00 0.30 0.30 62 1014.5
20260507165217 13 0 0.0 6.4 0.00 0.30 0.30 64 1014.6
20260507164713 12 291 1.6 4.8 0.00 0.30 0.30 64 1014.4
20260507164211 12 217 1.6 3.2 0.00 0.30 0.30 66 1014.7
20260507163708 13 244 4.8 6.4 0.00 0.30 0.30 60 1014.6
20260507163206 12 184 3.2 3.2 0.00 0.30 0.30 68 1014.7
20260507162702 12 250 4.8 6.4 0.00 0.30 0.30 66 1014.8
20260507162158 12 88 1.6 4.8 0.00 0.30 0.30 63 1014.8
20260507161654 11 282 4.8 4.8 0.00 0.30 0.30 65 1014.8
20260507161150 11 221 3.2 6.4 0.00 0.30 0.30 68 1014.8
20260507160647 12 260 3.2 9.7 0.00 0.30 0.30 63 1014.9
20260507160144 13 275 3.2 4.8 0.00 0.30 0.30 64 1015.0
20260507155639 12 269 4.8 4.8 0.00 0.30 0.30 65 1015.0
20260507155136 12 241 3.2 11.3 0.00 0.30 0.30 64 1015.0
20260507154633 12 234 8.0 11.3 0.00 0.30 0.30 68 1015.0
20260507154131 12 216 3.2 6.4 0.00 0.30 0.30 67 1015.1
20260507153626 13 216 1.6 9.7 0.00 0.30 0.30 59 1015.2
20260507153123 12 226 3.2 4.8 0.00 0.30 0.30 65 1015.0
20260507152620 13 330 1.6 3.2 0.00 0.30 0.30 57 1015.1
20260507152116 12 48 3.2 3.2 0.00 0.30 0.30 60 1015.1
20260507151612 12 246 0.0 1.6 0.00 0.30 0.30 63 1015.1
20260507151109 12 272 4.8 4.8 0.00 0.30 0.30 63 1015.1
20260507150601 11 252 3.2 3.2 0.00 0.30 0.30 70 1015.1
20260507150057 11 200 3.2 4.8 0.00 0.30 0.30 65 1015.1
20260507145552 12 147 0.0 1.6 0.00 0.30 0.30 66 1015.1
20260507145050 11 76 1.6 3.2 0.00 0.30 0.30 67 1015.1
20260507144546 11 286 3.2 3.2 0.00 0.30 0.30 69 1015.2
20260507144044 11 156 0.0 1.6 0.00 0.30 0.30 76 1015.3
20260507143541 11 4 1.6 1.6 0.00 0.30 0.30 82 1015.4
20260507143038 11 206 3.2 3.2 0.00 0.30 0.30 80 1015.4
20260507142533 11 158 0.0 3.2 0.00 0.30 0.30 79 1015.4
20260507142031 10 231 0.0 1.6 0.00 0.30 0.30 82 1015.6
20260507141527 10 270 0.0 4.8 0.00 0.30 0.30 78 1015.9
20260507141024 11 244 1.6 3.2 0.00 0.30 0.30 74 1015.8
20260507140521 10 67 0.0 3.2 0.00 0.30 0.30 81 1015.9
20260507140018 10 249 0.0 3.2 0.00 0.30 0.30 81 1015.8
20260507135514 10 316 0.0 0.0 0.00 0.30 0.30 82 1016.0
20260507135012 9 259 0.0 3.2 0.00 0.30 0.30 83 1015.9
20260507134508 9 223 0.0 0.0 0.00 0.30 0.30 90 1016.1
20260507134004 9 222 0.0 1.6 0.00 0.30 0.30 90 1016.1
20260507133500 8 222 1.6 3.2 0.00 0.30 0.30 91 1016.1
20260507132959 9 228 1.6 1.6 0.00 0.30 0.30 92 1016.0
20260507132454 8 227 0.0 1.6 0.00 0.30 0.30 93 1016.0
20260507131951 8 226 1.6 1.6 0.00 0.30 0.30 94 1016.1
20260507131448 8 214 0.0 1.6 0.00 0.30 0.30 95 1016.0
20260507130945 8 81 0.0 0.0 0.00 0.30 0.30 98 1016.2
20260507130442 8 185 1.6 1.6 0.00 0.30 0.30 99 1016.2
20260507125941 8 175 0.0 1.6 0.00 0.30 0.30 99 1016.1
20260507125438 7 175 0.0 0.0 0.00 0.30 0.30 99 1016.1
20260507124936 7 150 0.0 1.6 0.00 0.30 0.30 99 1016.1
20260507124432 7 174 0.0 0.0 0.00 0.30 0.30 99 1016.1
20260507123930 7 174 1.6 1.6 0.00 0.30 0.30 99 1016.2
20260507123427 7 174 0.0 1.6 0.00 0.30 0.30 99 1016.1
20260507122923 7 174 0.0 0.0 0.00 0.30 0.30 99 1016.3
20260507122418 7 174 0.0 0.0 0.00 0.30 0.30 99 1016.2
20260507121915 7 174 1.6 1.6 0.00 0.30 0.30 99 1016.3
20260507121410 7 174 0.0 1.6 0.00 0.30 0.30 99 1016.3
20260507120908 7 174 0.0 1.6 0.00 0.30 0.30 99 1016.4
20260507120404 7 174 0.0 1.6 0.00 0.30 0.30 99 1016.1
20260507115900 7 174 1.6 1.6 0.00 0.30 0.30 99 1016.2
20260507115356 7 144 0.0 0.0 0.00 0.30 0.30 99 1016.0
20260507114852 7 144 0.0 0.0 0.00 0.30 0.30 99 1016.0
20260507114349 7 144 0.0 0.0 0.00 0.30 0.30 99 1016.0
20260507113846 7 144 0.0 0.0 0.00 0.30 0.30 99 1016.0
20260507113343 7 144 0.0 0.0 0.00 0.30 0.30 99 1015.6
20260507112841 7 144 0.0 0.0 0.00 0.30 0.30 99 1015.6
20260507112338 7 144 0.0 0.0 0.00 0.30 0.30 99 1015.6
20260507111836 7 144 0.0 0.0 0.00 0.30 0.30 99 1015.4
20260507111332 7 144 0.0 0.0 0.00 0.30 0.30 99 1015.4
20260507110828 7 144 0.0 0.0 0.00 0.30 0.30 99 1015.2
20260507110324 7 144 0.0 0.0 0.00 0.30 0.30 99 1015.3
20260507105821 7 144 0.0 0.0 0.00 0.30 0.30 99 1015.3
20260507105318 7 144 0.0 0.0 0.00 0.30 0.30 99 1015.4
20260507104815 7 144 0.0 0.0 0.00 0.30 0.30 99 1015.4
20260507104311 7 144 0.0 0.0 0.00 0.30 0.30 99 1015.1
20260507103807 7 144 0.0 0.0 0.00 0.30 0.30 99 1015.0
20260507103304 7 144 0.0 0.0 0.00 0.30 0.30 99 1015.2
20260507102800 7 144 0.0 0.0 0.00 0.30 0.30 99 1015.3
20260507102257 7 144 0.0 0.0 0.00 0.30 0.30 99 1015.4
20260507101754 7 144 0.0 0.0 0.00 0.30 0.30 99 1015.2
20260507101253 7 144 0.0 0.0 0.00 0.30 0.30 99 1015.1
20260507100751 7 108 0.0 0.0 0.00 0.30 0.30 99 1015.2
20260507100249 7 107 0.0 0.0 0.00 0.30 0.30 99 1015.2
20260507095747 7 94 0.0 0.0 0.00 0.30 0.30 99 1015.1
20260507095243 7 144 0.0 0.0 0.00 0.30 0.30 99 1014.9
20260507094740 7 144 0.0 0.0 0.00 0.30 0.30 99 1015.1
20260507094237 7 144 0.0 0.0 0.00 0.30 0.30 99 1015.1
20260507093734 7 127 0.0 0.0 0.00 0.30 0.30 99 1015.0
20260507093232 7 127 0.0 1.6 0.00 0.30 0.30 99 1014.9
20260507092730 7 112 1.6 1.6 0.00 0.30 0.30 99 1014.8
20260507092225 7 69 3.2 3.2 0.00 0.30 0.30 99 1014.9
20260507091722 7 91 1.6 3.2 0.00 0.30 0.30 99 1015.1
20260507091219 7 85 1.6 3.2 0.00 0.30 0.30 99 1014.9
20260507090714 7 114 1.6 3.2 0.00 0.30 0.30 99 1015.1
20260507090211 7 134 0.0 0.0 0.00 0.30 0.30 99 1015.0
20260507085708 7 134 0.0 0.0 0.00 0.30 0.30 99 1015.1
20260507085205 7 127 0.0 1.6 0.00 0.30 0.30 99 1015.1
20260507084702 7 91 0.0 0.0 0.00 0.30 0.30 99 1015.2
20260507084158 7 75 0.0 0.0 0.00 0.30 0.30 99 1015.1
20260507083655 7 75 0.0 1.6 0.00 0.30 0.30 99 1015.1
20260507083152 7 73 0.0 0.0 0.18 0.30 0.30 99 1015.2
20260507082648 7 71 0.0 1.6 0.18 0.30 0.30 99 1015.3
20260507082144 7 49 0.0 4.8 0.00 0.28 0.28 99 1015.2
20260507081641 7 10 0.0 0.0 0.00 0.28 0.28 99 1014.9
20260507081137 7 9 1.6 1.6 0.00 0.28 0.28 99 1015.0
20260507080634 7 258 0.0 1.6 0.00 0.28 0.28 99 1015.2
20260507080131 7 274 3.2 3.2 0.13 0.28 0.28 99 1015.1
20260507075630 7 259 1.6 3.2 0.13 0.28 0.28 99 1015.2
20260507075127 7 271 3.2 4.8 0.18 0.25 0.25 99 1015.1
20260507074624 8 264 3.2 3.2 0.18 0.25 0.25 99 1015.0
20260507074122 8 21 1.6 1.6 0.13 0.23 0.23 99 1014.9
20260507073618 8 41 1.6 1.6 0.13 0.23 0.23 99 1015.0
20260507073114 8 282 0.0 1.6 0.00 0.20 0.20 99 1015.0
20260507072612 8 337 0.0 1.6 0.00 0.20 0.20 99 1015.0
20260507072109 8 278 1.6 1.6 0.18 0.20 0.20 99 1014.8
20260507071607 8 257 0.0 0.0 0.18 0.20 0.20 99 1014.8
20260507071103 8 258 0.0 1.6 0.00 0.18 0.18 99 1014.8
20260507070600 8 272 0.0 3.2 0.00 0.18 0.18 99 1015.2
20260507070057 8 278 0.0 0.0 0.00 0.18 0.18 99 1014.8
20260507065553 8 283 0.0 3.2 0.18 0.18 0.18 99 1015.0
20260507065051 8 287 0.0 0.0 0.18 0.18 0.18 99 1014.9
20260507064549 8 287 0.0 0.0 0.00 0.15 0.15 99 1014.8
20260507064047 8 8 0.0 0.0 0.00 0.15 0.15 99 1014.9
20260507063544 8 281 0.0 1.6 0.00 0.15 0.15 99 1015.1
20260507063041 8 306 0.0 1.6 0.00 0.15 0.15 99 1015.1
20260507062537 8 319 0.0 0.0 0.13 0.15 0.15 99 1014.9
20260507062035 8 347 0.0 0.0 0.13 0.15 0.15 99 1014.8
20260507061533 8 283 1.6 3.2 0.00 0.13 0.13 99 1014.8
20260507061031 8 323 0.0 1.6 0.18 0.13 0.13 99 1015.0
20260507060528 8 280 0.0 0.0 0.18 0.13 0.13 99 1015.1
20260507060025 8 66 0.0 1.6 0.00 0.10 0.10 99 1015.2
20260507055525 8 60 0.0 3.2 0.13 0.10 0.10 99 1015.2
20260507055022 8 20 0.0 1.6 0.00 0.08 0.08 99 1015.4
20260507054518 8 36 0.0 0.0 0.00 0.08 0.08 99 1015.4